Nome, AK

12:34 AM AKDT on August 24, 2016 (GMT -0800)
Nome

Weather History for PAOM - November, 2012

Change the Weather History Date:

Monday, November 12, 2012

  Actual Average Record
Temperature  
Mean Temperature 12 °F 18 °F  
Max Temperature 19 °F 24 °F 38 °F (1937)
Min Temperature 4 °F 12 °F -9 °F (1975)
Degree Days  
Heating Degree Days 53 47  
Month to date heating degree days 555 543  
Since 1 July heating degree days 3267 3198  
Cooling Degree Days 0    
Month to date cooling degree days 0  
Year to date cooling degree days 0  
Moisture  
Dew Point 7 °F    
Average Humidity 0    
Maximum Humidity 0    
Minimum Humidity 0    
Precipitation  
Precipitation 0.00 in 0.04 in 0.55 in (1920)
Month to date precipitation 0.02 0.52  
Year to date precipitation 18.13 15.03  
Snow  
Snow 0.00 in 0.40 in 5.00 in (1915)
Month to date snowfall 0.2 4.6  
Since 1 July snowfall 2.6 9.8  
Since 1 September snowfall 2.6 9.8  
Snow Depth 1.00 in    
Sea Level Pressure  
Sea Level Pressure 30.17 in    
Wind  
Wind Speed 2 mph (NNE)    
Max Wind Speed 12 mph    
Max Gust Speed 14 mph    
Visibility 10 miles    
Events      
T = Trace of Precipitation, MM = Missing Value Source: NWS Daily Summary

Daily Weather History Graph

Daily Weather History Graph

Search for Another Location

Airport or City:

Trip Planner

Search our weather history database for the weather conditions in past years. The results will help you decide how hot, cold, wet, or windy it might be!

Date:

Astronomy

Nov. 12, 2012 Rise Set
Actual Time 10:26 AM AKST 5:04 PM AKST
Civil Twilight 9:26 AM AKST 6:04 PM AKST
Nautical Twilight 8:25 AM AKST 7:05 PM AKST
Astronomical Twilight 7:28 AM AKST 8:02 PM AKST
Moon 8:52 AM AKST (11/12) 4:26 PM AKST (11/12)
Length of Visible Light 8h 38m
Length of Day
6h 38m
Waning Crescent, 2% of the Moon is Illuminated
Nov 12
Waning Crescent
Nov 13
New
Nov 20
First Quarter
Nov 28
Full
Dec 6
Last Quarter

Hourly Weather History & Observations

Time (AKST) Temp. Windchill Dew Point Humidity Pressure Visibility Wind Dir Wind Speed Gust Speed Precip Events Conditions
12:53 AM 9.0 °F 2.4 °F 5.0 °F 84% 30.09 in 10.0 mi North 3.5 mph - N/A   Clear
1:53 AM 8.1 °F - 3.9 °F 83% 30.09 in 10.0 mi Calm Calm - N/A   Clear
3:53 AM 6.1 °F - 3.0 °F 87% 30.13 in 10.0 mi Calm Calm - N/A   Clear
4:53 AM 6.1 °F -0.9 °F 3.0 °F 87% 30.13 in 10.0 mi North 3.5 mph - N/A   Clear
5:53 AM 3.9 °F - 1.0 °F 88% 30.16 in 10.0 mi Calm Calm - N/A   Clear
6:53 AM 7.0 °F 0.1 °F 3.9 °F 87% 30.17 in 10.0 mi NNW 3.5 mph - N/A   Clear
7:53 AM 8.1 °F - 5.0 °F 87% 30.18 in 10.0 mi Calm Calm - N/A   Clear
8:53 AM 10.0 °F - 8.1 °F 92% 30.19 in 10.0 mi Calm Calm - N/A   Clear
9:53 AM 10.9 °F - 8.1 °F 88% 30.19 in 10.0 mi Calm Calm - N/A   Mostly Cloudy
10:53 AM 12.0 °F - 9.0 °F 88% 30.20 in 10.0 mi Calm Calm - N/A   Mostly Cloudy
11:53 AM 10.9 °F 4.7 °F 9.0 °F 92% 30.21 in 10.0 mi NNE 3.5 mph - N/A   Mostly Cloudy
12:53 PM 12.9 °F - 9.0 °F 84% 30.21 in 10.0 mi Calm Calm - N/A   Mostly Cloudy
1:53 PM 15.1 °F 7.7 °F 10.9 °F 84% 30.22 in 10.0 mi North 4.6 mph - N/A   Mostly Cloudy
2:53 PM 16.0 °F - 12.0 °F 84% 30.22 in 10.0 mi Calm Calm - N/A   Mostly Cloudy
3:53 PM 16.0 °F - 12.9 °F 88% 30.20 in 10.0 mi Calm Calm - N/A   Mostly Cloudy
4:53 PM 10.9 °F 4.7 °F 9.0 °F 92% 30.21 in 10.0 mi NNE 3.5 mph - N/A   Mostly Cloudy
5:53 PM 10.0 °F 0.4 °F 7.0 °F 87% 30.19 in 10.0 mi NE 5.8 mph - N/A   Mostly Cloudy
6:53 PM 9.0 °F - 6.1 °F 88% 30.20 in 10.0 mi Calm Calm - N/A   Mostly Cloudy
7:53 PM 10.0 °F - 7.0 °F 87% 30.17 in 10.0 mi Calm Calm - N/A   Mostly Cloudy
8:53 PM 16.0 °F 7.4 °F 7.0 °F 68% 30.16 in 10.0 mi ENE 5.8 mph - N/A   Mostly Cloudy
9:53 PM 16.0 °F - 6.1 °F 65% 30.14 in 10.0 mi Calm Calm - N/A   Mostly Cloudy
10:53 PM 12.0 °F 1.5 °F 6.1 °F 77% 30.14 in 10.0 mi NE 6.9 mph - N/A   Mostly Cloudy
11:53 PM 19.0 °F 6.8 °F 8.1 °F 62% 30.14 in 10.0 mi NE 11.5 mph - N/A   Mostly Cloudy